QPF
0.05 0.15 0.25 0.02 0.00 0.00 0.00 0.00 0.00 0.00 0.00 0.00 0.00 0.00 0.00 0.00 0.00 0.00 0.00 0.00 0.00 0.00 0.00 0.00 0.00 0.00 0.00 0.00 0.00 0.00 0.00 0.00 0.00 0.01 0.02 0.01 0.02 0.03 0.01 0.02 0.05 0.03 0.03 0.03
0.01 0.03 0.05 0.11 0.08 0.00 0.00 0.00 0.00 0.00 0.00 0.00 0.00 0.00 0.00 0.00 0.00 0.00 0.00 0.00 0.00 0.00 0.00 0.00 0.00 0.00 0.00 0.00 0.00 0.00 0.00 0.00 0.00 0.00 0.00 0.01 0.00 0.01 0.03 0.05 0.03 0.04 0.03 0.07
0.00 0.00 0.02 0.02 0.11 0.03 0.00 0.00 0.00 0.00 0.00 0.00 0.00 0.00 0.00 0.00 0.00 0.00 0.00 0.00 0.00 0.00 0.00 0.00 0.00 0.00 0.00 0.00 0.00 0.00 0.00 0.00 0.00 0.00 0.00 0.02 0.05 0.05 0.04 0.04 0.02 0.01 0.03 0.13
0.00 0.00 0.00 0.00 0.00 0.00 0.00 0.00 0.00 0.00 0.00 0.00 0.00 0.00 0.00 0.00 0.00 0.00 0.00 0.00 0.00 0.00 0.00 0.00 0.00 0.00 0.00 0.00 0.00 0.00 0.00 0.00 0.00 0.00 0.00 0.00 0.00 0.00 0.00 0.00 0.01 0.02 0.02 0.12
0.00 0.00 0.00 0.00 0.00 0.00 0.00 0.00 0.00 0.00 0.00 0.00 0.00 0.00 0.00 0.00 0.00 0.00 0.00 0.00 0.00 0.00 0.00 0.00 0.00 0.00 0.00 0.00 0.00 0.00 0.00 0.00 0.00 0.00 0.00 0.00 0.00 0.01 0.01 0.01 0.03 0.03 0.03 0.07
0.00 0.00 0.00 0.00 0.00 0.00 0.00 0.00 0.00 0.00 0.00 0.00 0.00 0.00 0.00 0.00 0.00 0.00 0.00 0.00 0.00 0.00 0.00 0.00 0.00 0.00 0.00 0.00 0.00 0.00 0.00 0.00 0.00 0.00 0.00 0.00 0.00 0.00 0.00 0.04 0.07 0.04 0.03 0.03
0.00 0.00 0.00 0.00 0.00 0.00 0.00 0.00 0.00 0.00 0.00 0.00 0.00 0.00 0.00 0.00 0.00 0.00 0.00 0.00 0.00 0.00 0.00 0.00 0.00 0.00 0.00 0.00 0.00 0.00 0.00 0.00 0.00 0.00 0.00 0.00 0.00 0.00 0.00 0.03 0.04 0.02 0.01 0.00
0.00 0.00 0.00 0.00 0.00 0.00 0.00 0.00 0.00 0.00 0.00 0.00 0.00 0.00 0.00 0.00 0.00 0.00 0.00 0.00 0.00 0.00 0.00 0.00 0.00 0.00 0.00 0.00 0.00 0.00 0.00 0.00 0.00 0.00 0.00 0.00 0.00 0.00 0.00 0.00 0.00 0.00 0.01 0.02
0.00 0.00 0.00 0.00 0.00 0.00 0.00 0.00 0.00 0.00 0.00 0.00 0.00 0.00 0.00 0.00 0.00 0.00 0.00 0.00 0.00 0.00 0.00 0.00 0.00 0.00 0.00 0.00 0.00 0.00 0.00 0.00 0.00 0.00 0.00 0.00 0.00 0.00 0.00 0.00 0.00 0.01 0.03 0.03
0.00 0.00 0.00 0.00 0.00 0.00 0.00 0.00 0.00 0.00 0.00 0.00 0.00 0.00 0.00 0.00 0.00 0.00 0.00 0.00 0.00 0.00 0.00 0.00 0.00 0.00 0.00 0.00 0.00 0.00 0.00 0.00 0.00 0.00 0.00 0.00 0.00 0.00 0.00 0.00 0.01 0.02 0.03 0.04
0.00 0.00 0.00 0.00 0.00 0.00 0.00 0.00 0.00 0.00 0.00 0.00 0.00 0.00 0.00 0.00 0.00 0.00 0.00 0.00 0.00 0.00 0.00 0.00 0.00 0.00 0.00 0.00 0.00 0.00 0.00 0.00 0.00 0.00 0.00 0.00 0.00 0.00 0.00 0.00 0.01 0.02 0.03 0.03
0.00 0.00 0.00 0.00 0.00 0.00 0.00 0.00 0.00 0.00 0.00 0.00 0.00 0.00 0.00 0.00 0.00 0.00 0.00 0.00 0.00 0.00 0.00 0.00 0.00 0.00 0.00 0.00 0.00 0.00 0.00 0.00 0.00 0.00 0.00 0.00 0.00 0.00 0.01 0.02 0.03 0.02 0.02 0.01
0.00 0.00 0.00 0.00 0.00 0.00 0.00 0.00 0.00 0.00 0.00 0.00 0.00 0.00 0.00 0.00 0.00 0.00 0.00 0.00 0.00 0.00 0.00 0.00 0.00 0.00 0.00 0.00 0.00 0.00 0.00 0.00 0.00 0.00 0.00 0.00 0.00 0.01 0.02 0.03 0.03 0.02 0.01 0.00
0.00 0.00 0.00 0.00 0.00 0.00 0.00 0.00 0.00 0.00 0.00 0.00 0.00 0.00 0.00 0.00 0.00 0.00 0.00 0.00 0.00 0.00 0.00 0.00 0.00 0.00 0.00 0.00 0.00 0.00 0.00 0.00 0.01 0.01 0.03 0.03 0.03 0.03 0.02 0.02 0.01 0.00 0.00 0.00
0.00 0.00 0.00 0.00 0.00 0.00 0.00 0.00 0.00 0.00 0.00 0.00 0.00 0.00 0.00 0.00 0.00 0.00 0.00 0.00 0.00 0.00 0.00 0.00 0.00 0.00 0.00 0.00 0.00 0.00 0.00 0.00 0.02 0.02 0.04 0.04 0.01 0.01 0.00 0.00 0.00 0.00 0.00 0.00
0.00 0.00 0.00 0.00 0.00 0.00 0.00 0.00 0.00 0.00 0.00 0.00 0.00 0.00 0.00 0.00 0.00 0.00 0.00 0.00 0.00 0.00 0.00 0.00 0.00 0.00 0.00 0.00 0.00 0.00 0.00 0.00 0.01 0.01 0.01 0.00 0.01 0.00 0.00 0.00 0.00 0.00 0.01 0.00
0.00 0.00 0.00 0.00 0.00 0.00 0.00 0.00 0.00 0.00 0.00 0.00 0.00 0.00 0.00 0.00 0.00 0.00 0.00 0.00 0.00 0.00 0.00 0.00 0.00 0.00 0.00 0.00 0.00 0.00 0.00 0.00 0.00 0.03 0.02 0.02 0.04 0.06 0.00 0.01 0.02 0.01 0.02 0.03
0.00 0.00 0.00 0.00 0.00 0.00 0.00 0.00 0.00 0.00 0.00 0.00 0.00 0.00 0.00 0.00 0.00 0.00 0.00 0.00 0.00 0.00 0.00 0.00 0.00 0.00 0.00 0.00 0.00 0.00 0.09 0.03 0.22 0.07 0.17 0.19 0.21 0.03 0.01 0.02 0.06 0.09 0.07 0.06
0.00 0.00 0.00 0.00 0.00 0.00 0.00 0.00 0.00 0.00 0.00 0.00 0.00 0.00 0.00 0.00 0.00 0.00 0.00 0.00 0.00 0.00 0.00 0.00 0.00 0.00 0.00 0.00 0.00 0.00 0.00 0.00 0.04 0.12 0.21 0.06 0.06 0.01 0.03 0.06 0.14 0.29 0.43 0.33
0.00 0.00 0.00 0.01 0.00 0.00 0.00 0.00 0.00 0.00 0.00 0.00 0.00 0.00 0.00 0.00 0.00 0.00 0.00 0.00 0.00 0.00 0.00 0.00 0.00 0.00 0.00 0.00 0.00 0.00 0.00 0.00 0.00 0.00 0.00 0.01 0.07 0.16 0.16 0.29 0.30 0.24 0.21 0.15
0.01 0.01 0.01 0.00 0.00 0.00 0.00 0.00 0.00 0.00 0.00 0.00 0.00 0.00 0.00 0.00 0.00 0.00 0.00 0.00 0.00 0.00 0.00 0.00 0.00 0.00 0.00 0.00 0.00 0.00 0.00 0.00 0.03 0.06 0.09 0.07 0.11 0.22 0.19 0.13 0.13 0.07 0.03 0.01
0.00 0.00 0.00 0.00 0.00 0.00 0.00 0.00 0.00 0.00 0.00 0.00 0.00 0.00 0.00 0.00 0.00 0.00 0.00 0.00 0.00 0.00 0.00 0.00 0.00 0.00 0.00 0.00 0.00 0.01 0.02 0.02 0.04 0.05 0.09 0.09 0.05 0.07 0.05 0.01 0.00 0.00 0.00 0.00
0.00 0.00 0.00 0.00 0.00 0.00 0.00 0.00 0.00 0.00 0.00 0.00 0.00 0.00 0.00 0.00 0.00 0.00 0.00 0.00 0.00 0.00 0.00 0.00 0.00 0.00 0.01 0.01 0.01 0.02 0.03 0.01 0.03 0.02 0.02 0.02 0.01 0.00 0.00 0.00 0.00 0.00 0.00 0.00
0.00 0.00 0.00 0.00 0.00 0.00 0.00 0.00 0.00 0.00 0.00 0.00 0.00 0.00 0.00 0.00 0.00 0.00 0.00 0.00 0.00 0.00 0.00 0.00 0.00 0.00 0.00 0.00 0.01 0.00 0.00 0.00 0.01 0.01 0.00 0.00 0.00 0.00 0.00 0.00 0.00 0.00 0.00 0.00
0.00 0.00 0.00 0.00 0.00 0.00 0.00 0.00 0.00 0.00 0.00 0.00 0.00 0.00 0.00 0.00 0.00 0.00 0.00 0.00 0.00 0.00 0.00 0.00 0.00 0.00 0.00 0.00 0.00 0.00 0.00 0.00 0.00 0.00 0.00 0.00 0.00 0.00 0.00 0.00 0.00 0.00 0.00 0.00
0.00 0.00 0.00 0.00 0.00 0.00 0.00 0.00 0.00 0.00 0.00 0.00 0.00 0.00 0.00 0.00 0.00 0.00 0.00 0.00 0.00 0.00 0.00 0.00 0.00 0.00 0.00 0.00 0.00 0.00 0.00 0.00 0.00 0.00 0.00 0.00 0.00 0.00 0.00 0.00 0.00 0.00 0.00 0.00
MSLP
1011.55 1011.97 1012.04 1012.64 1013.20 1013.39 1013.88 1014.30 1014.36 1014.02 1013.67 1013.66 1013.52 1013.34 1012.42 1011.86 1011.86 1011.77 1011.24 1010.58 1010.02 1009.60 1008.90 1009.10 1008.99 1008.92 1009.16 1009.06 1009.28 1009.12 1009.26 1009.28 1009.65 1010.40 1011.07 1011.50 1011.57 1011.93 1012.23 1012.47 1012.37 1012.84 1013.03 1013.88
1011.93 1011.84 1012.42 1012.87 1013.29 1013.71 1014.08 1014.56 1014.69 1014.37 1014.14 1014.25 1013.86 1013.37 1012.27 1011.26 1010.90 1010.60 1010.17 1009.70 1009.35 1009.08 1008.60 1008.54 1008.51 1008.52 1008.44 1008.39 1008.42 1008.68 1008.62 1008.73 1008.89 1009.32 1009.75 1010.05 1010.42 1010.87 1011.04 1011.50 1011.81 1012.12 1012.39 1012.99
1011.70 1011.93 1012.36 1012.83 1013.61 1014.29 1014.42 1014.92 1015.10 1015.19 1014.94 1015.08 1014.75 1013.25 1011.97 1010.51 1010.20 1009.94 1009.58 1009.34 1009.20 1008.61 1008.20 1008.08 1008.25 1008.09 1008.00 1008.16 1007.99 1007.95 1008.13 1008.27 1008.33 1008.50 1009.14 1009.91 1010.22 1010.53 1010.91 1011.34 1011.71 1011.76 1011.93 1012.53
1011.89 1012.07 1012.69 1013.22 1013.79 1014.07 1014.66 1014.93 1015.37 1015.86 1015.98 1016.73 1016.25 1015.13 1012.94 1011.15 1010.59 1009.98 1009.48 1009.57 1009.30 1008.71 1008.31 1008.12 1008.00 1007.84 1007.71 1007.56 1007.41 1007.61 1007.75 1007.85 1007.88 1008.04 1008.63 1008.96 1009.08 1009.57 1009.71 1009.90 1010.46 1011.15 1011.30 1011.85
1012.50 1012.55 1012.82 1013.23 1013.43 1013.88 1014.86 1015.35 1016.11 1016.77 1017.31 1017.75 1017.24 1017.04 1012.95 1011.84 1010.74 1009.99 1009.95 1009.75 1009.38 1009.03 1008.76 1008.38 1008.08 1007.50 1007.20 1007.17 1007.15 1007.22 1007.44 1007.65 1007.69 1007.88 1007.71 1008.22 1008.63 1008.78 1008.98 1009.25 1009.84 1010.69 1011.34 1011.54
1012.80 1012.72 1012.79 1013.16 1013.70 1014.08 1015.14 1016.01 1017.04 1017.98 1018.54 1018.75 1017.57 1017.11 1013.70 1012.07 1011.30 1010.53 1010.35 1010.36 1009.96 1009.57 1009.05 1008.57 1007.94 1007.55 1007.15 1006.77 1006.70 1006.68 1006.76 1006.82 1006.98 1007.22 1007.53 1007.76 1007.92 1008.44 1008.89 1009.53 1009.93 1010.65 1011.28 1011.73
1013.53 1013.54 1013.22 1013.35 1014.11 1014.76 1015.66 1016.90 1018.81 1019.52 1019.76 1018.99 1018.05 1017.55 1013.59 1011.84 1011.30 1011.01 1011.00 1010.85 1010.50 1010.07 1009.56 1009.22 1008.77 1008.42 1007.98 1007.52 1006.95 1006.83 1006.83 1006.80 1006.84 1007.08 1007.18 1007.26 1007.54 1007.89 1008.23 1008.71 1009.32 1010.18 1010.88 1011.28
1014.07 1014.45 1013.83 1013.83 1014.24 1015.13 1016.40 1017.34 1019.15 1019.86 1020.47 1019.78 1018.54 1016.60 1013.03 1011.81 1011.40 1011.12 1011.11 1011.07 1010.73 1010.32 1010.10 1009.90 1009.58 1009.00 1008.69 1008.40 1008.10 1007.48 1007.14 1006.96 1006.77 1006.86 1007.04 1007.07 1007.11 1007.23 1007.54 1008.07 1008.49 1008.93 1009.38 1010.11
1014.28 1014.45 1014.29 1014.17 1014.32 1015.16 1016.75 1017.73 1018.76 1019.91 1020.96 1020.42 1018.16 1015.69 1012.89 1011.70 1011.46 1011.37 1011.25 1011.08 1010.91 1010.59 1010.25 1009.95 1009.71 1009.28 1008.78 1008.39 1008.17 1007.96 1007.57 1007.22 1006.87 1006.66 1006.68 1006.73 1006.89 1007.15 1007.31 1007.49 1008.06 1008.78 1009.34 1010.07
1013.90 1014.65 1014.51 1014.40 1014.61 1015.58 1016.16 1017.39 1018.97 1020.29 1021.11 1020.41 1018.35 1016.30 1013.73 1012.29 1011.72 1011.47 1011.33 1011.03 1010.75 1010.38 1010.16 1009.96 1009.80 1009.36 1008.91 1008.72 1008.37 1008.14 1007.83 1007.54 1006.91 1006.61 1006.44 1006.40 1006.42 1006.78 1007.29 1007.82 1008.32 1008.83 1009.51 1010.17
1013.67 1014.62 1015.28 1014.93 1015.35 1016.04 1016.99 1017.47 1018.68 1019.78 1020.50 1020.72 1019.60 1015.53 1013.02 1012.24 1011.89 1011.84 1011.54 1011.24 1010.62 1010.20 1010.03 1009.93 1009.46 1009.10 1008.79 1008.53 1008.45 1008.27 1007.83 1007.63 1007.13 1006.56 1006.56 1006.67 1006.81 1007.08 1007.61 1008.26 1008.77 1009.02 1009.68 1010.52
1013.76 1014.77 1015.88 1015.84 1016.07 1016.24 1016.55 1017.27 1018.34 1019.62 1020.85 1021.13 1020.00 1015.80 1012.91 1012.24 1011.89 1011.64 1011.16 1010.67 1010.24 1010.00 1009.92 1009.73 1009.61 1009.24 1008.96 1008.71 1008.47 1008.22 1007.83 1007.66 1007.45 1007.31 1007.12 1007.42 1007.69 1007.63 1008.06 1008.70 1009.18 1009.62 1010.10 1010.98
1013.84 1015.15 1016.47 1016.84 1016.89 1016.65 1016.82 1017.25 1018.07 1019.17 1019.97 1020.57 1019.55 1015.26 1012.72 1012.12 1011.27 1011.00 1010.75 1010.38 1010.18 1010.11 1010.03 1009.81 1009.62 1009.52 1009.08 1008.73 1008.74 1008.68 1008.61 1008.35 1008.07 1007.77 1007.74 1008.24 1008.45 1008.41 1008.60 1009.05 1009.49 1010.00 1010.40 1011.32
1013.67 1015.40 1016.36 1016.87 1016.77 1016.87 1017.10 1017.15 1017.64 1018.49 1019.65 1019.03 1017.12 1014.72 1012.86 1011.68 1011.28 1010.79 1010.61 1010.80 1010.55 1010.38 1010.07 1009.90 1009.77 1009.58 1009.36 1009.18 1009.19 1009.26 1009.40 1009.15 1008.62 1008.30 1008.26 1008.84 1009.04 1009.04 1009.24 1009.38 1009.99 1010.77 1011.03 1011.69
1014.30 1015.98 1016.89 1016.97 1016.78 1016.80 1016.77 1016.79 1017.07 1017.57 1017.48 1017.33 1015.60 1014.46 1012.20 1011.51 1011.18 1011.02 1011.24 1011.29 1011.15 1010.83 1010.52 1010.33 1010.24 1010.47 1010.30 1010.22 1010.25 1010.07 1009.87 1009.58 1009.31 1009.08 1008.71 1009.48 1009.49 1009.61 1010.07 1010.47 1010.76 1011.42 1012.50 1012.93
1014.99 1016.64 1017.46 1017.23 1016.66 1016.47 1016.32 1015.93 1016.03 1016.15 1016.28 1015.88 1014.74 1013.39 1011.42 1011.24 1011.07 1011.33 1011.90 1012.15 1011.90 1011.71 1011.17 1010.75 1011.13 1011.34 1011.37 1011.28 1011.27 1010.87 1010.55 1010.40 1010.26 1010.02 1010.17 1010.59 1010.71 1011.06 1011.61 1011.84 1012.58 1012.56 1013.66 1014.15
1015.37 1016.51 1017.77 1017.55 1016.80 1016.20 1015.51 1013.74 1013.96 1014.19 1014.10 1013.84 1013.58 1011.62 1011.14 1011.04 1011.24 1012.03 1012.55 1012.78 1012.70 1012.59 1012.22 1012.26 1012.23 1012.23 1012.06 1011.89 1011.92 1011.60 1011.51 1011.45 1011.52 1011.68 1011.77 1011.99 1012.41 1012.86 1012.99 1013.40 1013.65 1014.11 1014.89 1015.41
1015.42 1016.47 1017.63 1017.51 1016.61 1015.37 1012.80 1011.88 1011.82 1012.24 1012.10 1012.15 1011.61 1011.06 1010.99 1011.26 1011.67 1012.59 1013.17 1013.24 1013.29 1013.19 1012.94 1012.98 1013.03 1012.92 1012.68 1012.59 1012.56 1012.42 1012.48 1012.28 1012.17 1012.33 1012.50 1013.20 1013.73 1014.00 1014.25 1014.42 1014.78 1015.70 1016.17 1016.67
1014.85 1016.03 1017.13 1017.09 1016.30 1014.25 1011.87 1011.20 1011.12 1011.43 1011.17 1010.80 1011.12 1011.07 1011.02 1011.40 1012.03 1012.92 1013.43 1013.56 1013.74 1013.79 1013.70 1013.65 1013.62 1013.57 1013.49 1013.52 1013.51 1013.36 1013.28 1013.31 1013.42 1013.58 1013.65 1014.09 1014.42 1014.72 1015.14 1015.19 1015.63 1016.49 1017.47 1017.68
1015.14 1015.64 1016.44 1016.15 1015.57 1013.70 1011.39 1010.61 1010.36 1010.55 1010.78 1010.36 1010.70 1010.99 1011.22 1011.76 1012.46 1013.18 1013.77 1013.97 1014.14 1014.36 1014.24 1014.15 1014.21 1014.31 1014.37 1014.37 1014.31 1014.21 1014.30 1014.49 1014.65 1014.86 1015.04 1015.33 1015.66 1015.77 1015.92 1016.37 1016.87 1017.35 1017.76 1018.66
1015.17 1015.46 1015.59 1015.36 1014.83 1012.73 1010.84 1010.42 1010.27 1010.53 1011.13 1010.46 1010.71 1011.00 1011.54 1012.13 1012.67 1013.31 1013.96 1014.33 1014.51 1014.73 1014.81 1014.84 1014.95 1014.93 1015.03 1015.13 1015.19 1015.27 1015.47 1015.67 1015.91 1016.01 1016.12 1016.40 1016.75 1016.59 1016.93 1017.48 1017.96 1018.21 1018.75 1019.07
1014.06 1014.54 1014.52 1014.50 1013.94 1012.12 1010.26 1010.40 1010.36 1010.38 1010.27 1010.44 1010.82 1011.15 1011.72 1012.36 1013.08 1013.66 1014.06 1014.57 1014.91 1015.22 1015.36 1015.47 1015.57 1015.65 1015.67 1015.64 1015.78 1015.99 1016.23 1016.48 1016.55 1016.85 1016.99 1017.37 1017.46 1017.66 1018.01 1018.35 1018.73 1019.00 1019.50 1020.15
1013.49 1013.09 1013.24 1013.05 1011.79 1010.39 1009.95 1009.94 1009.89 1010.13 1010.40 1010.50 1010.86 1011.27 1011.82 1012.70 1013.37 1013.84 1014.41 1014.76 1015.18 1015.58 1015.92 1016.12 1016.07 1016.19 1016.27 1016.25 1016.40 1016.67 1017.05 1017.11 1017.26 1017.52 1017.86 1018.12 1018.32 1018.64 1019.01 1019.37 1019.73 1020.05 1020.32 1020.54
1012.47 1012.17 1012.32 1011.94 1010.21 1010.03 1009.73 1009.67 1009.84 1010.11 1010.29 1010.59 1010.88 1011.39 1011.89 1012.53 1013.30 1013.94 1014.57 1014.99 1015.23 1015.68 1016.12 1016.30 1016.37 1016.48 1016.69 1016.93 1017.04 1017.15 1017.42 1017.63 1017.88 1018.30 1018.67 1018.92 1019.14 1019.52 1019.67 1019.77 1019.97 1020.29 1020.62 1020.99
1011.79 1011.69 1011.37 1011.01 1010.19 1009.75 1009.46 1009.52 1009.70 1010.09 1010.43 1010.75 1011.14 1011.51 1012.06 1012.70 1013.30 1013.66 1014.31 1014.99 1015.34 1015.77 1016.21 1016.43 1016.56 1016.82 1017.10 1017.42 1017.63 1017.73 1017.96 1018.19 1018.56 1018.96 1019.29 1019.57 1019.90 1020.23 1020.45 1020.59 1020.74 1020.99 1021.13 1021.27
1011.57 1011.30 1011.28 1010.62 1009.98 1009.89 1009.61 1009.49 1009.82 1010.37 1010.66 1010.93 1011.43 1011.90 1012.29 1012.66 1013.17 1013.78 1014.14 1014.78 1015.32 1015.87 1016.31 1016.64 1016.78 1017.05 1017.38 1017.69 1018.00 1018.27 1018.45 1018.68 1019.00 1019.56 1020.01 1020.40 1020.69 1020.95 1021.16 1021.31 1021.47 1021.14 1021.11 1021.08
Thickness
5552 5555 5561 5569 5569 5573 5571 5574 5579 5589 5599 5601 5605 5605 5626 5636 5634 5636 5643 5652 5661 5668 5679 5677 5680 5683 5685 5687 5684 5686 5686 5689 5689 5684 5678 5675 5677 5675 5674 5673 5674 5670 5671 5664
5547 5553 5557 5562 5565 5568 5568 5569 5573 5581 5591 5594 5597 5602 5622 5636 5641 5643 5649 5655 5661 5666 5670 5674 5676 5678 5681 5684 5683 5681 5683 5684 5685 5684 5682 5682 5680 5677 5677 5674 5672 5671 5670 5665
5546 5554 5556 5557 5555 5554 5559 5559 5564 5571 5578 5580 5582 5602 5617 5636 5638 5641 5644 5650 5654 5662 5669 5672 5669 5672 5676 5677 5679 5681 5678 5678 5679 5680 5676 5672 5671 5672 5669 5667 5665 5667 5664 5659
5542 5550 5550 5548 5551 5553 5551 5561 5564 5562 5567 5562 5570 5570 5599 5618 5620 5630 5635 5635 5640 5649 5657 5660 5663 5664 5667 5671 5673 5673 5673 5672 5672 5672 5671 5671 5673 5671 5671 5671 5666 5660 5660 5657
5534 5542 5543 5546 5552 5555 5552 5556 5554 5553 5544 5547 5558 5550 5597 5605 5619 5630 5630 5631 5635 5640 5644 5650 5654 5659 5663 5663 5664 5665 5665 5665 5666 5665 5670 5668 5667 5668 5667 5666 5662 5654 5649 5648
5532 5542 5546 5547 5546 5553 5548 5547 5536 5527 5526 5507 5549 5551 5585 5603 5614 5617 5617 5618 5623 5629 5633 5641 5645 5650 5652 5655 5657 5657 5658 5659 5657 5657 5657 5659 5661 5656 5654 5652 5651 5644 5640 5637
5525 5529 5540 5544 5539 5545 5539 5524 5485 5501 5497 5529 5541 5541 5574 5599 5605 5609 5609 5611 5611 5617 5624 5628 5629 5632 5636 5643 5646 5646 5646 5646 5646 5646 5647 5649 5649 5646 5646 5646 5644 5635 5631 5632
5511 5514 5533 5539 5539 5535 5533 5525 5491 5525 5524 5523 5535 5547 5584 5595 5598 5600 5603 5604 5606 5611 5609 5611 5615 5617 5617 5619 5622 5626 5629 5630 5632 5631 5630 5632 5635 5638 5639 5637 5636 5634 5632 5630
5494 5514 5528 5535 5539 5537 5523 5503 5522 5498 5484 5484 5528 5550 5579 5590 5591 5591 5590 5594 5594 5597 5599 5598 5599 5603 5604 5605 5605 5605 5607 5610 5612 5614 5615 5618 5620 5621 5623 5624 5621 5618 5617 5614
5518 5506 5530 5535 5540 5534 5533 5527 5507 5469 5476 5511 5530 5533 5560 5583 5587 5583 5580 5583 5587 5589 5587 5585 5585 5586 5588 5587 5587 5587 5587 5588 5593 5595 5598 5602 5605 5605 5605 5603 5603 5602 5600 5599
5524 5508 5520 5534 5528 5522 5522 5511 5511 5501 5499 5484 5509 5552 5562 5576 5577 5572 5569 5573 5577 5584 5579 5576 5578 5576 5573 5569 5566 5565 5567 5568 5573 5578 5579 5581 5584 5587 5587 5586 5586 5587 5584 5582
5528 5505 5515 5526 5524 5525 5529 5526 5516 5489 5494 5471 5471 5529 5568 5564 5565 5564 5572 5573 5580 5575 5567 5565 5561 5557 5552 5548 5542 5539 5538 5543 5546 5548 5553 5556 5560 5566 5569 5569 5570 5570 5569 5565
5528 5499 5474 5504 5511 5517 5520 5524 5517 5504 5483 5466 5476 5530 5562 5553 5569 5568 5569 5572 5571 5560 5559 5561 5551 5543 5537 5529 5523 5515 5510 5512 5517 5524 5529 5531 5536 5544 5550 5553 5556 5557 5557 5552
5529 5503 5503 5496 5509 5501 5495 5517 5517 5500 5473 5493 5499 5533 5556 5563 5562 5568 5568 5556 5556 5555 5555 5553 5543 5530 5518 5512 5505 5498 5492 5495 5500 5505 5514 5515 5521 5528 5532 5539 5541 5540 5544 5542
5523 5505 5503 5508 5514 5518 5516 5519 5512 5494 5515 5492 5526 5530 5557 5560 5561 5561 5549 5546 5544 5543 5540 5538 5526 5510 5502 5495 5487 5481 5480 5484 5491 5496 5506 5505 5510 5516 5518 5521 5527 5528 5524 5526
5510 5488 5489 5479 5511 5508 5503 5516 5517 5516 5519 5520 5532 5541 5560 5559 5560 5552 5537 5531 5531 5528 5532 5529 5510 5497 5488 5483 5479 5474 5473 5475 5481 5487 5490 5493 5498 5499 5500 5504 5504 5514 5510 5511
5514 5500 5473 5484 5504 5510 5505 5525 5526 5529 5527 5540 5531 5553 5559 5556 5555 5536 5526 5522 5521 5519 5516 5506 5498 5489 5481 5478 5474 5470 5469 5467 5468 5471 5476 5479 5479 5482 5485 5488 5493 5497 5494 5493
5502 5495 5469 5470 5494 5495 5543 5552 5548 5545 5551 5545 5550 5557 5556 5552 5540 5524 5518 5517 5514 5511 5507 5500 5492 5486 5482 5477 5471 5469 5465 5464 5466 5468 5469 5467 5468 5469 5473 5478 5481 5479 5477 5476
5511 5499 5480 5487 5498 5513 5551 5556 5551 5546 5551 5552 5543 5548 5552 5546 5532 5523 5514 5514 5508 5504 5500 5495 5491 5485 5479 5473 5469 5467 5466 5464 5463 5464 5465 5464 5464 5465 5467 5471 5472 5467 5464 5466
5504 5499 5491 5500 5501 5515 5551 5553 5555 5552 5544 5554 5552 5548 5549 5542 5547 5534 5509 5507 5504 5499 5497 5492 5488 5483 5477 5473 5470 5467 5463 5460 5459 5458 5457 5457 5457 5460 5462 5463 5463 5462 5460 5454
5497 5496 5498 5504 5496 5515 5544 5549 5551 5549 5545 5551 5549 5546 5541 5540 5533 5517 5509 5502 5499 5495 5492 5487 5482 5479 5475 5471 5467 5463 5459 5456 5454 5454 5455 5454 5454 5459 5458 5456 5453 5453 5451 5449
5503 5500 5504 5504 5506 5510 5547 5546 5550 5550 5547 5549 5545 5541 5536 5526 5518 5512 5507 5500 5495 5490 5486 5483 5478 5474 5472 5471 5468 5464 5459 5457 5456 5453 5453 5451 5452 5452 5451 5450 5447 5445 5441 5435
5500 5502 5502 5507 5519 5542 5547 5551 5550 5541 5541 5545 5543 5536 5532 5522 5516 5511 5502 5497 5492 5486 5480 5476 5474 5471 5468 5468 5465 5461 5457 5455 5454 5453 5450 5448 5448 5446 5443 5440 5436 5433 5430 5427
5511 5514 5512 5522 5544 5540 5545 5545 5546 5542 5542 5541 5539 5532 5527 5524 5514 5507 5500 5495 5492 5487 5481 5477 5475 5472 5468 5465 5463 5460 5457 5455 5453 5449 5445 5443 5442 5438 5436 5434 5432 5428 5424 5419
5514 5519 5524 5524 5536 5541 5545 5544 5547 5543 5538 5537 5533 5528 5523 5516 5512 5508 5502 5494 5490 5485 5480 5475 5475 5471 5467 5463 5460 5458 5455 5452 5448 5444 5442 5438 5435 5431 5428 5426 5423 5419 5415 5412
5502 5512 5512 5528 5539 5539 5543 5547 5540 5536 5534 5531 5526 5522 5520 5518 5512 5505 5501 5494 5489 5481 5476 5473 5472 5470 5466 5461 5457 5454 5452 5449 5445 5439 5434 5429 5426 5423 5420 5417 5413 5415 5412 5410